COSMOS 1275 DEB, 42147

Orbit data source: Space-Track

COSMOS 1275 DEB, 42147 is space debris in LEO originally from a launch on Thu, 04 Jun 1981 UTC launched from the Plesetsk Missile And Space Complex (PKMTR). Debris objects in space refer to the collection of defunct objects orbiting the Earth. Examples of debris include non-operational satellites, rocket bodies, and fragments generated from explosions, collisions, or faulty payload assembly.

Loading next visibility...
Identifier
42147, 1981-053RK
Orbit
LEO
Country
Flag of CISCIS
Related business
Manufacturer
Unknown
Mission
Spacecraft
Bus & Motor
Unknown
Mass
Unknown
Launch date (UTC)
1981-06-04 (45 years ago)
Launch vehicle
Unknown
Launch site
Plesetsk Missile And Space Complex (PKMTR)
Object type
Payload
Rocket body
Debris
Shape & HBR
Unknown shape, 0.050 m
Radar Cross Section
Small (<0.1 m²)

Expand to show TLE details & history
Last TLE update: 6 days ago

TLE from 6 days ago
0 COSMOS 1275 DEB
1 42147U 81053RK  26262.03921305  .00001170  00000-0  50049-3 0  9996
2 42147  83.0669 179.8314 0017993 135.5216 224.7416 14.24097534662376
Epoch: 2026-09-19T00:56Z
TLE epoch observation values (Epoch: 2026-09-19T00:56:28.007Z)
Latitude
-0.00004°
Longitude
167.76123°
Altitude
823.702 km
Speed
7.436 km/s
True Right ascension
11h 59m 19s
True Declination
0° 00' 00"
Sunlit
Object was in daylight at epoch
Visualization orbit readout
Latitude
Unknown
Longitude
Unknown
Altitude
Unknown
Speed
Unknown
Apparent Right ascension
Unknown
Apparent Declination
Unknown
Sunlit
N/A
Visualization observer readout
Local Sidereal Time
11:15:48
Azimuth
Unknown
Elevation
Unknown
Doppler factor
Unknown
Orbital elements
Apogee altitude
821.536 km
Perigee altitude
795.674 km
Semi-major axis
7,186.742 km
Eccentricity
0.0018
Inclination
83.0669°
RAAN
179.8314°
Arg. of periapsis
135.5216°
True anomaly
224.5967°
Mean anomaly
224.7416°
Eccentric anomaly
224.66912°
Mean motion
3.56242 °/min
Orbital period
101.05 mins
BSTAR
0.00050049
Loading maneuver chart data...
Computing Atmospheric mass density...

Documentation

Showing up to 5 results
|